Вернуться в каталог

TITAN 34B AGENA D DEB

АктивенHEO
NORAD 25588·DEBRIS·🇺🇸 United States

Запущен Jul 31, 1983 с Vandenberg Space Force Base

Loading…

Ближайшие Пролёты (ближайшие 24 часа)

TLE

СвежийSource: Space-Track

Эпоха: Sep 13, 2026, 12:05 UTC

1 25588U 83078E   26256.50396512 -.00000021  00000-0  29592-3 0  9990
2 25588  63.6039  29.5232 7271708 272.7512  14.0316  2.20161825 58889

Отслеживайте TITAN 34B AGENA D DEB в реальном времени с AllMySat

Download on the App Store